Weather in Owings Mills

United States     39°25′08″N   76°46′48″W
temp.,
°C
wind,
m/s
gust,
m/s
humid.,
%
clouds,
%
prec.,
mm/h
press.,
hPa
HPBL,
m
17 september, fri
fri1723:00+20ene3796100 0.0 1022283
02:00+19ne3797100 0.0 1022238
05:00+19ne3798100 0.0 1022279
08:00+20ne3794100 0.0 1023350
11:00+23ene358371 0.2 1023603
14:00+25ene447252 0.3 1021963
17:00+25ne347423 0.3 1020785
20:00+21nne249457 0.8 1020119
18 september, sat
sat1823:00+20nne239549 0.0 102067
02:00+19n11956 0.0 101920
05:00+19nnw12950 0.0 101929
08:00+20nw12910 0.0 102092
11:00+25nw23690 0.0 1019767
14:00+28nnw346022 0.0 10181358
17:00+28nnw35620 0.1 10171327
20:00+23w11732 0.2 101812
19 september, sun
sun1923:00+22wnw22774 0.0 101925
02:00+20n23831 0.0 102073
05:00+19n37860 0.0 1020170
08:00+19n37845 0.0 1022239
11:00+24nne34575 0.0 1023768
14:00+26nne334714 0.0 10221157
17:00+25nne22503 0.0 1021934
20:00+20ne236734 0.0 102268
20 september, mon
mon2023:00+18ene226967 0.0 102340
02:00+17e2274100 0.0 102456
05:00+16ene1278100 0.0 102445
08:00+17e248198 0.0 1025144
11:00+22se355764 0.0 1026713
14:00+25se4548100 0.0 10251141
17:00+23ese365780 0.0 1024506
20:00+20ese51073100 0.0 1025508
21 september, tue
tue2123:00+19se4978100 0.0 1026493
02:00+18se398299 0.0 1025518
05:00+17se3789100 0.0 1025305
08:00+18se388688 0.0 1025407
11:00+22sse4669100 0.0 10251044
14:00+25sse455799 0.0 10231438
17:00+24sse4661100 0.0 1021677
20:00+21sse3766100 0.0 1021286